Location: Brunembert
(50.7122°N, 1.8935°E)
Time: 10:15:53
(UTC+00:00)

Cosmos 676 Rocket - Pass Details

Date: 22 April 2021
Orbit: 755 x 783 km, 74.0° (Epoch: 16 May)

Event Time Altitude Azimuth Distance (km) Brightness Sun altitude
Exits shadow 21:17:20 - 205° (SSW) 2,734 6.6 -18.5°
Reaches altitude 10° 21:18:29 10° 206° (SSW) 2,283 6.2 -18.6°
Maximum altitude 21:23:40 83° 294° (WNW) 769 4.0 -19.1°
Drops below altitude 10° 21:28:53 10° 23° (NNE) 2,293 6.8 -19.6°
Sets 21:31:16 0° 24° (NNE) 3,222 7.6 -19.8°
